Weather History for KNYG - June, 2013

Change the Weather History Date:

Sunday, June 16, 2013

  Actual Average Record
Temperature  
Mean Temperature 76 °F -  
Max Temperature 87 °F 79 °F 87 °F (2008)
Min Temperature 64 °F 62 °F 55 °F (2006)
Cooling Degree Days 10    
Growing Degree Days 26 (Base 50)    
Moisture  
Dew Point 65 °F    
Average Humidity 73    
Maximum Humidity 93    
Minimum Humidity 43    
Precipitation  
Precipitation 0.07 in - - ()
Sea Level Pressure  
Sea Level Pressure 29.97 in    
Wind  
Wind Speed 5 mph (West)    
Max Wind Speed 13 mph    
Max Gust Speed 17 mph    
Visibility 10 miles    
Events Rain    
Averages and records for this station are not official NWS values.
T = Trace of Precipitation, MM = Missing Value Source: NWS Daily Summary

Daily Weather History Graph

Daily Weather History Graph

Search for Another Location

Airport or City:

Trip Planner

Search our weather history database for the weather conditions in past years. The results will help you decide how hot, cold, wet, or windy it might be!

Date:

Astronomy

Jun. 16, 2013 Rise Set
Actual Time 5:44 AM EDT 8:35 PM EDT
Civil Twilight 5:12 AM EDT 9:07 PM EDT
Nautical Twilight 4:32 AM EDT 9:47 PM EDT
Astronomical Twilight 3:47 AM EDT 10:32 PM EDT
Moon 1:13 PM EDT (6/16) 12:44 AM EDT (6/16)
Length of Visible Light 15h 54m
Length of Day
14h 50m
Waxing Crescent, 49% of the Moon is Illuminated
Jun 16
Waxing Crescent
Jun 16
First Quarter
Jun 23
Full
Jun 30
Last Quarter
Jul 8
New

Hourly Weather History & Observations

Time (EDT) Temp. Heat Index Dew Point Humidity Pressure Visibility Wind Dir Wind Speed Gust Speed Precip Events Conditions
12:56 AM 66.9 °F - 62.1 °F 84% 30.04 in 10.0 mi WNW 6.9 mph - N/A   Clear
1:56 AM 66.0 °F - 62.1 °F 87% 30.03 in 10.0 mi WNW 4.6 mph - N/A   Partly Cloudy
2:56 AM 66.9 °F - 62.1 °F 84% 30.02 in 10.0 mi Calm Calm - N/A   Clear
3:56 AM 66.0 °F - 61.0 °F 84% 30.01 in 10.0 mi WNW 4.6 mph - N/A   Clear
4:56 AM 66.0 °F - 61.0 °F 84% 30.01 in 10.0 mi WNW 3.5 mph - N/A   Clear
5:56 AM 64.9 °F - 61.0 °F 87% 30.02 in 10.0 mi WNW 5.8 mph - N/A   Clear
6:56 AM 66.0 °F - 61.0 °F 84% 30.02 in 10.0 mi Calm Calm - N/A   Partly Cloudy
7:56 AM 66.9 °F - 60.1 °F 79% 30.02 in 10.0 mi Variable 3.5 mph - N/A   Clear
8:56 AM 71.1 °F - 61.0 °F 70% 30.01 in 10.0 mi SW 5.8 mph - N/A   Scattered Clouds
9:56 AM 75.0 °F - 63.0 °F 66% 30.00 in 10.0 mi SSW 6.9 mph - N/A   Clear
10:56 AM 78.1 °F - 64.9 °F 64% 29.99 in 10.0 mi South 9.2 mph - N/A   Clear
11:56 AM 80.1 °F 82.1 °F 66.0 °F 62% 29.97 in 10.0 mi SSW 6.9 mph - N/A   Mostly Cloudy
12:56 PM 84.0 °F 84.4 °F 61.0 °F 46% 29.95 in 10.0 mi WSW 12.7 mph 17.3 mph N/A   Clear
1:56 PM 87.1 °F 87.5 °F 62.1 °F 43% 29.94 in 10.0 mi WSW 9.2 mph - N/A   Clear
2:56 PM 84.9 °F 85.9 °F 63.0 °F 48% 29.94 in 10.0 mi West 6.9 mph - N/A   Scattered Clouds
3:56 PM 84.9 °F 86.6 °F 64.9 °F 51% 29.93 in 10.0 mi SW 6.9 mph - N/A   Mostly Cloudy
4:56 PM 82.0 °F 84.5 °F 66.9 °F 60% 29.91 in 10.0 mi WSW 5.8 mph - 0.00 in Rain Light Rain
5:56 PM 81.0 °F 83.0 °F 66.0 °F 60% 29.91 in 10.0 mi WSW 4.6 mph - 0.00 in   Clear
6:56 PM 81.0 °F 84.1 °F 69.1 °F 67% 29.91 in 10.0 mi Calm Calm - N/A   Overcast
7:56 PM 79.0 °F - 69.1 °F 72% 29.94 in 8.0 mi NNW 9.2 mph - 0.01 in Rain Light Rain
8:56 PM 75.0 °F - 71.1 °F 87% 29.93 in 10.0 mi WNW 3.5 mph - 0.06 in   Partly Cloudy
9:56 PM 73.9 °F - 72.0 °F 93% 29.95 in 7.0 mi WNW 4.6 mph - 0.00 in Rain Light Rain
10:56 PM 73.9 °F - 72.0 °F 93% 29.95 in 7.0 mi NW 4.6 mph - 0.00 in   Scattered Clouds
11:56 PM 73.0 °F - 70.0 °F 90% 29.94 in 10.0 mi NW 4.6 mph - N/A   Scattered Clouds